• In Latvia
  • List of Countries
  • For 7 days
  • Water Temperature
  • Satellite Maps
  • Weather Map
  • Weather Widgets
  • user-avatar
    Login

    Hourly Weather Graz

    Today, 24 November, Friday

    Time Temperature Precipitation Wind Pressure Humidity
    00:00 +6°C° 0 mm 1 mps 725 mmHg 83%
    01:00 +6°C° 0 mm 1 mps 725 mmHg 82%
    02:00 +6°C° 0 mm 1 mps 725 mmHg 82%
    03:00 +6°C° 0 mm 1 mps 725 mmHg 81%
    04:00 +6°C° 0 mm 1 mps 725 mmHg 80%
    05:00 +6°C° 0 mm 1 mps 725 mmHg 80%
    06:00 +6°C° 0 mm 1 mps 725 mmHg 80%
    07:00 +6°C° 0 mm 1 mps 725 mmHg 80%
    08:00 +8°C° 0 mm 1 mps 725 mmHg 75%
    09:00 +9°C° 0 mm 1 mps 725 mmHg 70%
    10:00 +11°C° 0 mm 1 mps 726 mmHg 66%
    11:00 +12°C° 0 mm 1 mps 725 mmHg 63%
    12:00 +13°C° 0 mm 1 mps 725 mmHg 60%
    13:00 +14°C° 0 mm 1 mps 725 mmHg 57%
    14:00 +13°C° 0 mm 1 mps 725 mmHg 64%
    15:00 +11°C° 0 mm 1 mps 724 mmHg 71%
    16:00 +10°C° 0 mm 1 mps 724 mmHg 77%
    17:00 +9°C° 0 mm 1 mps 724 mmHg 79%
    18:00 +8°C° 0 mm 1 mps 724 mmHg 82%
    19:00 +7°C° 0 mm 1 mps 724 mmHg 84%
    20:00 +7°C° 0 mm 1 mps 724 mmHg 84%
    21:00 +7°C° 0 mm 1 mps 724 mmHg 85%
    22:00 +7°C° 0 mm 1 mps 724 mmHg 85%
    23:00 +6°C° 0 mm 1 mps 724 mmHg 86%

    Tomorrow, 25 November, Saturday

    Time Temperature Precipitation Wind Pressure Humidity
    00:00 +6°C° 0 mm 1 mps 724 mmHg 87%
    01:00 +6°C° 0 mm 1 mps 723 mmHg 88%
    02:00 +6°C° 0 mm 1 mps 723 mmHg 89%
    03:00 +6°C° 0 mm 1 mps 722 mmHg 90%
    04:00 +6°C° 0 mm 1 mps 722 mmHg 90%
    05:00 +6°C° 0 mm 1 mps 721 mmHg 91%
    06:00 +5°C° 0 mm 2 mps 721 mmHg 92%
    07:00 +5°C° 0 mm 2 mps 720 mmHg 93%
    08:00 +6°C° 0 mm 2 mps 720 mmHg 90%
    09:00 +8°C° 0 mm 2 mps 719 mmHg 87%
    10:00 +9°C° 0 mm 3 mps 719 mmHg 85%
    11:00 +10°C° 0 mm 3 mps 718 mmHg 82%
    12:00 +11°C° 0 mm 4 mps 718 mmHg 79%
    13:00 +12°C° 0 mm 4 mps 717 mmHg 76%
    14:00 +11°C° 0 mm 3 mps 717 mmHg 79%
    15:00 +10°C° 0 mm 3 mps 717 mmHg 82%
    16:00 +10°C° 0 mm 2 mps 717 mmHg 86%
    17:00 +10°C° 0.7 mm 2 mps 717 mmHg 88%
    18:00 +9°C° 0.7 mm 2 mps 717 mmHg 90%
    19:00 +9°C° 0.7 mm 2 mps 718 mmHg 92%
    20:00 +9°C° 2.5 mm 2 mps 718 mmHg 92%
    21:00 +9°C° 2.5 mm 1 mps 718 mmHg 93%
    22:00 +9°C° 2.5 mm 1 mps 718 mmHg 94%
    23:00 +8°C° 1.7 mm 1 mps 719 mmHg 94%

    Day after tomorrow, 26 November, Sunday

    Time Temperature Precipitation Wind Pressure Humidity
    00:00 +8°C° 1.7 mm 1 mps 719 mmHg 93%
    01:00 +7°C° 1.7 mm 1 mps 720 mmHg 92%
    02:00 +7°C° 0.3 mm 1 mps 720 mmHg 92%
    03:00 +7°C° 0.3 mm 1 mps 720 mmHg 91%
    04:00 +7°C° 0.3 mm 1 mps 720 mmHg 90%
    05:00 +6°C° 0.1 mm 1 mps 721 mmHg 89%
    06:00 +6°C° 0.1 mm 1 mps 721 mmHg 89%
    07:00 +6°C° 0.1 mm 1 mps 722 mmHg 88%
    08:00 +5°C° 0.2 mm 2 mps 722 mmHg 85%
    09:00 +5°C° 0.2 mm 2 mps 723 mmHg 82%
    10:00 +5°C° 0.2 mm 2 mps 724 mmHg 79%
    11:00 +4°C° 0.2 mm 3 mps 724 mmHg 77%
    12:00 +4°C° 0.2 mm 3 mps 724 mmHg 75%
    13:00 +4°C° 0.2 mm 4 mps 725 mmHg 73%
    14:00 +4°C° 0.1 mm 4 mps 725 mmHg 74%
    15:00 +3°C° 0.1 mm 3 mps 725 mmHg 76%
    16:00 +3°C° 0.1 mm 3 mps 726 mmHg 77%
    17:00 +2°C° 0 mm 3 mps 726 mmHg 77%
    18:00 +2°C° 0 mm 3 mps 727 mmHg 77%
    19:00 +1°C° 0 mm 3 mps 727 mmHg 78%
    20:00 +1°C° 0 mm 3 mps 728 mmHg 78%
    21:00 +1°C° 0 mm 3 mps 728 mmHg 78%
    22:00 0°C° 0 mm 3 mps 728 mmHg 79%
    23:00 +1°C° 0 mm 2 mps 729 mmHg 80%

    27 November, Monday

    Time Temperature Precipitation Wind Pressure Humidity
    00:00 -1°C° 0 mm 2 mps 729 mmHg 81%
    01:00 -1°C° 0 mm 2 mps 729 mmHg 82%
    02:00 -1°C° 0 mm 2 mps 729 mmHg 83%
    03:00 -2°C° 0 mm 2 mps 729 mmHg 83%
    04:00 -2°C° 0 mm 2 mps 729 mmHg 84%
    05:00 -2°C° 0 mm 2 mps 730 mmHg 83%
    06:00 -2°C° 0 mm 2 mps 730 mmHg 83%
    07:00 -2°C° 0 mm 2 mps 731 mmHg 83%
    08:00 -1°C° 0 mm 2 mps 731 mmHg 77%
    09:00 +1°C° 0 mm 2 mps 731 mmHg 70%
    10:00 +2°C° 0 mm 2 mps 731 mmHg 64%
    11:00 +3°C° 0 mm 2 mps 731 mmHg 61%
    12:00 +3°C° 0 mm 2 mps 730 mmHg 58%
    13:00 +4°C° 0 mm 2 mps 730 mmHg 54%
    14:00 +3°C° 0 mm 2 mps 730 mmHg 59%
    15:00 +3°C° 0 mm 1 mps 730 mmHg 63%
    16:00 +2°C° 0 mm 1 mps 729 mmHg 67%
    17:00 +1°C° 0 mm 1 mps 730 mmHg 71%
    18:00 +1°C° 0 mm 1 mps 730 mmHg 74%
    19:00 0°C° 0 mm 1 mps 730 mmHg 77%
    20:00 0°C° 0 mm 1 mps 730 mmHg 78%
    21:00 -1°C° 0 mm 1 mps 730 mmHg 79%
    22:00 -1°C° 0 mm 1 mps 730 mmHg 79%
    23:00 -1°C° 0 mm 1 mps 729 mmHg 79%

    28 November, Tuesday

    Time Temperature Precipitation Wind Pressure Humidity
    00:00 -1°C° 0 mm 1 mps 729 mmHg 78%
    01:00 -1°C° 0 mm 1 mps 729 mmHg 78%
    02:00 -1°C° 0 mm 1 mps 729 mmHg 77%
    03:00 -1°C° 0 mm 1 mps 728 mmHg 75%
    04:00 -1°C° 0 mm 1 mps 728 mmHg 74%
    05:00 -1°C° 0 mm 1 mps 728 mmHg 73%
    06:00 -1°C° 0 mm 1 mps 728 mmHg 71%
    07:00 -1°C° 0 mm 1 mps 728 mmHg 70%
    08:00 0°C° 0 mm 1 mps 727 mmHg 63%
    09:00 +1°C° 0 mm 0 mps 727 mmHg 57%
    10:00 +3°C° 0 mm 0 mps 727 mmHg 50%
    11:00 +4°C° 0 mm 1 mps 727 mmHg 47%
    12:00 +5°C° 0 mm 1 mps 726 mmHg 45%
    13:00 +6°C° 0 mm 1 mps 725 mmHg 42%
    14:00 +5°C° 0 mm 1 mps 725 mmHg 49%
    15:00 +4°C° 0 mm 1 mps 724 mmHg 55%
    16:00 +3°C° 0 mm 1 mps 724 mmHg 61%
    17:00 +2°C° 0 mm 1 mps 724 mmHg 64%
    18:00 +1°C° 0 mm 1 mps 724 mmHg 66%
    19:00 +1°C° 0 mm 1 mps 723 mmHg 69%
    20:00 0°C° 0 mm 1 mps 723 mmHg 69%
    21:00 0°C° 0 mm 1 mps 723 mmHg 69%
    22:00 0°C° 0 mm 1 mps 722 mmHg 70%
    23:00 0°C° 0 mm 1 mps 722 mmHg 70%

    29 November, Wednesday

    Time Temperature Precipitation Wind Pressure Humidity
    00:00 0°C° 0 mm 1 mps 721 mmHg 71%
    01:00 0°C° 0 mm 1 mps 721 mmHg 71%
    02:00 0°C° 0 mm 1 mps 721 mmHg 71%
    03:00 0°C° 0 mm 1 mps 720 mmHg 71%
    04:00 0°C° 0 mm 1 mps 720 mmHg 71%
    05:00 0°C° 0 mm 1 mps 720 mmHg 71%
    06:00 0°C° 0 mm 1 mps 720 mmHg 71%
    07:00 0°C° 0 mm 1 mps 720 mmHg 71%
    08:00 +1°C° 0 mm 1 mps 720 mmHg 67%
    09:00 +3°C° 0 mm 1 mps 720 mmHg 63%
    10:00 +4°C° 0 mm 1 mps 720 mmHg 58%
    11:00 +5°C° 0 mm 1 mps 719 mmHg 58%
    12:00 +6°C° 0 mm 1 mps 719 mmHg 58%
    13:00 +6°C° 0 mm 1 mps 718 mmHg 57%
    14:00 +6°C° 0 mm 1 mps 718 mmHg 65%
    15:00 +5°C° 0 mm 1 mps 718 mmHg 72%
    16:00 +4°C° 0 mm 1 mps 718 mmHg 80%
    17:00 +3°C° 0.3 mm 1 mps 718 mmHg 82%
    18:00 +3°C° 0.3 mm 1 mps 717 mmHg 84%
    19:00 +3°C° 0.3 mm 1 mps 717 mmHg 86%
    20:00 +3°C° 0.8 mm 1 mps 717 mmHg 87%
    21:00 +3°C° 0.8 mm 1 mps 717 mmHg 87%
    22:00 +3°C° 0.8 mm 1 mps 717 mmHg 87%
    23:00 +3°C° 0.9 mm 1 mps 717 mmHg 88%
    Show more